sat.trackr.live / text

‹ back to catalog

GONETS-M 14

NORAD 44905 · 2019-096A

PAYLOAD ACTIVE UNKNOWN

§ Identity

Operator
Country
CIS
Launch date
2019-12-26
Launch site
PLMSC
Launch vehicle
Mass (kg)
RCS (m²)

External: N2YO · Heavens-Above · Gunter

§ Orbital elements

Epoch: 2026-05-25T04:28:47.796384Z

Period
115.86 min
Inclination
82.5214°
Eccentricity
0.0012534
Mean motion
12.42868994 rev/d
Perigee alt
1,484.6 km
Apogee alt
1,504.3 km
Semi-major
7,872.6 km
B*
1.1515e-4
RAAN
98.8990°
Arg perigee
198.8737°
Mean anomaly
161.1880°
Rev number
29,082

§ Raw data

GONETS-M 141 44905U 19096A   26145.18666431  .00000026  00000+0  11515-3 0  99932 44905  82.5214  98.8990 0012534 198.8737 161.1880 12.42868994290826

JSON: /api/v1/satellites/44905 · /tle

For live sub-satellite position, see the globe view (requires WebGL).

§ Visibility from observer

Set your observer location to see the next 7 days of passes ≥ 10°. The values pass through the URL so the page stays shareable.

No JS? Fill the form by hand. The geolocation button needs JavaScript.

§ Radio — SatNOGS DB

ModeDescriptionDownlinkUplink
FM Telemetry 265.059 MHz
FM UHF Unknown 387.462 MHz
FM UHF Unknown 388.687 MHz

3 transmitters · refreshed weekly from db.satnogs.org